STARLINK-3124, 49456

Orbit data source: Space-Track

STARLINK-3124, 49456 is a payload satellite owned by SpaceX/Seattle (US) in LEO that was launched on Sat, 13 Nov 2021 UTC via an FALCON 9 launch vehicle from the Air Force Eastern Test Range (AFETR). Payload-class satellites include a variety of spacecraft equipped with specific instruments for various scientific and technological missions. These include communications satellites like Starlink; space stations such as the ISS; scientific satellites like the Hubble; Earth observation satellites from companies like Planet Labs, Umbra, and HawkEye 360; GPS; miniature CubeSats for education and research; and military/defense satellites.

Loading next visibility...
Identifier
49456, 2021-104BA
Orbit
LEO
Country
Flag of USUS
Related business
Manufacturer
SpaceX/Seattle
Mission
Operational Commercial Communications
Bus & Motor
STARLINK, Unknown motor
Mass
290 kg wet, ~270 kg dry
Launch date (UTC)
2021-11-13 (5 years ago)
Launch vehicle
FALCON 9
Launch site
Air Force Eastern Test Range (AFETR)
Object type
Payload
Rocket body
Debris
Shape & HBR
Box + 1 Pan, 10.1 m
Radar Cross Section
13.562 m², Large (>1 m²)

Expand to show TLE details & history
Last TLE update: 2 days ago

TLE from 2 days ago
0 STARLINK-3124
1 49456U 21104BA  26171.27920936  .00001964  00000-0  14148-3 0  9992
2 49456  53.1603 118.5133 0001653  44.1725 315.9398 15.08839535254262
Epoch: 2026-06-20T06:42Z
TLE epoch observation values (Epoch: 2026-06-20T06:42:03.688Z)
Latitude
-0.00005°
Longitude
109.50178°
Altitude
539.815 km
Speed
7.594 km/s
True Right ascension
07h 54m 03s
True Declination
0° 00' 00"
Sunlit
Object was in daylight at epoch
Visualization orbit readout
Latitude
Unknown
Longitude
Unknown
Altitude
Unknown
Speed
Unknown
Apparent Right ascension
Unknown
Apparent Declination
Unknown
Sunlit
N/A
Visualization observer readout
Local Sidereal Time
21:30:01
Azimuth
Unknown
Elevation
Unknown
Doppler factor
Unknown
Orbital elements
Apogee altitude
541.142 km
Perigee altitude
538.855 km
Semi-major axis
6,918.136 km
Eccentricity
0.00017
Inclination
53.1603°
RAAN
118.5133°
Arg. of periapsis
44.1725°
True anomaly
315.92663°
Mean anomaly
315.9398°
Eccentric anomaly
315.93321°
Mean motion
3.77189 °/min
Orbital period
95.44 mins
BSTAR
0.00014148
Loading maneuver chart data...
Computing Atmospheric mass density...
Loading historical data...
Loading historical data...
Loading historical data...
Loading historical data...
Loading historical data...
Loading historical data...
Loading historical data...

Documentation

Showing up to 5 results
|